Corinthiakos — A8UL2 — position and weather

sailwx.info

Track history (hours):
 
Tides and Currents Weather Stations Pressure Air Temp Water Temp Dewpoint Dewpoint Depression Visibility Wind Speed Wind Dir Waves Ship Positions

Corinthiakos

Last reported at 2014-Nov-22 15:25 UTC. Time now 2014-Nov-28 07:01 UTC.
Position N 01°13' E 103°32'.

Length 262 m; draft 12.6 m.

Type: Cargo ship. MMSI: 636014516.

Date/timePositionNaut miles runAvg speedWind from/ knotsBaromVisibWave heightAir tempDewpointWater temp
2014-Nov-22 15:25N 01°13' E 103°32'1011.7
2014-Nov-22 14:33N 01°14' E 103°42'5 4.8
2014-Nov-22 13:28N 01°17' E 103°46'0 0.0
2014-Nov-22 12:28N 01°17' E 103°46'0 0.0
2014-Nov-22 11:22N 01°17' E 103°46'0 0.0
2014-Nov-22 10:16N 01°17' E 103°46'0 0.0
2014-Nov-22 09:28N 01°17' E 103°46'0 0.0
2014-Nov-22 08:10N 01°17' E 103°46'0 0.0
2014-Nov-22 07:22N 01°17' E 103°46'0 0.0
2014-Nov-22 06:31N 01°17' E 103°46'0 0.0
2014-Nov-22 05:04N 01°17' E 103°46'0 0.0
2014-Nov-22 04:28N 01°17' E 103°46'0 0.0
2014-Nov-22 03:25N 01°17' E 103°46'0 0.0
2014-Nov-22 02:16N 01°17' E 103°46'0 0.0
2014-Nov-22 01:28N 01°17' E 103°46'0 0.0
2014-Nov-22 00:28N 01°17' E 103°46'0 0.0
2014-Nov-21 23:31N 01°17' E 103°46'0 0.0
2014-Nov-21 22:22N 01°17' E 103°46'0 0.0
2014-Nov-21 21:28N 01°17' E 103°46'0 0.0
2014-Nov-21 20:13N 01°17' E 103°46'0 0.0
2014-Nov-21 19:22N 01°17' E 103°46'0 0.0
2014-Nov-21 18:28N 01°17' E 103°46'1 1.5
2014-Nov-21 17:33N 01°17' E 103°45'8 7.5
2014-Nov-21 16:27N 01°13' E 103°52'6 7.1
2014-Nov-21 15:34N 01°15' E 103°58'8 8.2
2014-Nov-21 14:34N 01°16' E 104°06'9 8.8
2014-Nov-21 13:32N 01°17' E 104°15'  
2014-Nov-16 02:33N 21°51' E 113°52'1212.1
2014-Nov-16 01:33N 22°03' E 113°51'1313.1
2014-Nov-16 00:33N 22°16' E 113°48'1212.4
2014-Nov-15 23:33N 22°28' E 113°45'1110.6
2014-Nov-15 22:33N 22°38' E 113°41'0 0.0
2014-Nov-15 20:18N 22°38' E 113°41'0 0.0
2014-Nov-15 19:12N 22°38' E 113°41'0 0.0
2014-Nov-15 16:18N 22°38' E 113°41'0 0.0
2014-Nov-15 14:24N 22°38' E 113°41'0 0.0
2014-Nov-15 13:33N 22°38' E 113°41'5 5.4
2014-Nov-15 12:33N 22°33' E 113°44'1514.8
2014-Nov-15 11:33N 22°19' E 113°48'1313.0
2014-Nov-15 10:33N 22°06' E 113°51'7 7.3
2014-Nov-15 09:33N 21°59' E 113°54'0 0.1
2014-Nov-15 08:14N 21°59' E 113°54'0 0.0
2014-Nov-15 07:08N 21°59' E 113°54'0 0.0
2014-Nov-15 06:32N 21°59' E 113°54'0 0.0
2014-Nov-15 05:14N 21°59' E 113°54'0 0.0
2014-Nov-15 04:26N 21°59' E 113°54'0 0.0
2014-Nov-15 03:14N 21°59' E 113°54'0 0.0
2014-Nov-15 02:32N 21°59' E 113°54'0 0.0
2014-Nov-15 01:26N 21°59' E 113°54'0 0.0
2014-Nov-15 00:32N 21°59' E 113°54'0 0.0
2014-Nov-14 23:32N 21°59' E 113°54'0 0.0
2014-Nov-14 22:32N 21°59' E 113°54'0 0.0
2014-Nov-14 21:32N 21°59' E 113°54'0 0.0
2014-Nov-14 20:32N 21°59' E 113°54'0 0.0
2014-Nov-14 19:32N 21°59' E 113°54'0 0.0
2014-Nov-14 18:20N 21°59' E 113°54'0 0.0
2014-Nov-14 17:32N 21°59' E 113°54'0 0.0
2014-Nov-14 16:14N 21°59' E 113°54'0 0.0
2014-Nov-14 15:32N 21°59' E 113°54'0 0.0
2014-Nov-14 14:20N 21°59' E 113°54'0 0.0
2014-Nov-14 12:26N 21°59' E 113°54'0 0.0
2014-Nov-14 11:32N 21°59' E 113°54'0 0.0
2014-Nov-14 07:20N 21°59' E 113°54'0 0.0
2014-Nov-14 06:08N 21°59' E 113°54'0 0.0
2014-Nov-14 05:14N 21°59' E 113°54'0 0.0
2014-Nov-14 04:32N 21°59' E 113°54'0 0.0
2014-Nov-14 02:14N 21°59' E 113°54'0 0.0
2014-Nov-14 01:31N 21°59' E 113°54'0 0.0
2014-Nov-14 00:33N 21°59' E 113°54'0 0.1
2014-Nov-13 23:33N 21°59' E 113°54'8 7.7
2014-Nov-13 22:33N 21°52' E 113°51'10 8.9
2014-Nov-13 21:28N 21°46' E 114°00'25914.2
2014-Nov-13 03:14N 23°42' E 118°11'5213.8
2014-Nov-12 23:29N 24°16' E 118°53'  
Track history (hours):
 
Tides and Currents Weather Stations Pressure Air Temp Water Temp Dewpoint Dewpoint Depression Visibility Wind Speed Wind Dir Waves Ship Positions

Corinthiakos

Last reported at 2014-Nov-22 15:25 UTC. Time now 2014-Nov-28 07:01 UTC.
Position N 01°13' E 103°32'.

Length 262 m; draft 12.6 m.

Type: Cargo ship. MMSI: 636014516.

Date/timePositionNaut miles runAvg speedWind from/ knotsBaromVisibWave heightAir tempDewpointWater temp
2014-Nov-22 15:25N 01°13' E 103°32'1011.7
2014-Nov-22 14:33N 01°14' E 103°42'5 4.8
2014-Nov-22 13:28N 01°17' E 103°46'0 0.0
2014-Nov-22 12:28N 01°17' E 103°46'0 0.0
2014-Nov-22 11:22N 01°17' E 103°46'0 0.0
2014-Nov-22 10:16N 01°17' E 103°46'0 0.0
2014-Nov-22 09:28N 01°17' E 103°46'0 0.0
2014-Nov-22 08:10N 01°17' E 103°46'0 0.0
2014-Nov-22 07:22N 01°17' E 103°46'0 0.0
2014-Nov-22 06:31N 01°17' E 103°46'0 0.0
2014-Nov-22 05:04N 01°17' E 103°46'0 0.0
2014-Nov-22 04:28N 01°17' E 103°46'0 0.0
2014-Nov-22 03:25N 01°17' E 103°46'0 0.0
2014-Nov-22 02:16N 01°17' E 103°46'0 0.0
2014-Nov-22 01:28N 01°17' E 103°46'0 0.0
2014-Nov-22 00:28N 01°17' E 103°46'0 0.0
2014-Nov-21 23:31N 01°17' E 103°46'0 0.0
2014-Nov-21 22:22N 01°17' E 103°46'0 0.0
2014-Nov-21 21:28N 01°17' E 103°46'0 0.0
2014-Nov-21 20:13N 01°17' E 103°46'0 0.0
2014-Nov-21 19:22N 01°17' E 103°46'0 0.0
2014-Nov-21 18:28N 01°17' E 103°46'1 1.5
2014-Nov-21 17:33N 01°17' E 103°45'8 7.5
2014-Nov-21 16:27N 01°13' E 103°52'6 7.1
2014-Nov-21 15:34N 01°15' E 103°58'8 8.2
2014-Nov-21 14:34N 01°16' E 104°06'9 8.8
2014-Nov-21 13:32N 01°17' E 104°15'  
2014-Nov-16 02:33N 21°51' E 113°52'1212.1
2014-Nov-16 01:33N 22°03' E 113°51'1313.1
2014-Nov-16 00:33N 22°16' E 113°48'1212.4
2014-Nov-15 23:33N 22°28' E 113°45'1110.6
2014-Nov-15 22:33N 22°38' E 113°41'0 0.0
2014-Nov-15 20:18N 22°38' E 113°41'0 0.0
2014-Nov-15 19:12N 22°38' E 113°41'0 0.0
2014-Nov-15 16:18N 22°38' E 113°41'0 0.0
2014-Nov-15 14:24N 22°38' E 113°41'0 0.0
2014-Nov-15 13:33N 22°38' E 113°41'5 5.4
2014-Nov-15 12:33N 22°33' E 113°44'1514.8
2014-Nov-15 11:33N 22°19' E 113°48'1313.0
2014-Nov-15 10:33N 22°06' E 113°51'7 7.3
2014-Nov-15 09:33N 21°59' E 113°54'0 0.1
2014-Nov-15 08:14N 21°59' E 113°54'0 0.0
2014-Nov-15 07:08N 21°59' E 113°54'0 0.0
2014-Nov-15 06:32N 21°59' E 113°54'0 0.0
2014-Nov-15 05:14N 21°59' E 113°54'0 0.0
2014-Nov-15 04:26N 21°59' E 113°54'0 0.0
2014-Nov-15 03:14N 21°59' E 113°54'0 0.0
2014-Nov-15 02:32N 21°59' E 113°54'0 0.0
2014-Nov-15 01:26N 21°59' E 113°54'0 0.0
2014-Nov-15 00:32N 21°59' E 113°54'0 0.0
2014-Nov-14 23:32N 21°59' E 113°54'0 0.0
2014-Nov-14 22:32N 21°59' E 113°54'0 0.0
2014-Nov-14 21:32N 21°59' E 113°54'0 0.0
2014-Nov-14 20:32N 21°59' E 113°54'0 0.0
2014-Nov-14 19:32N 21°59' E 113°54'0 0.0
2014-Nov-14 18:20N 21°59' E 113°54'0 0.0
2014-Nov-14 17:32N 21°59' E 113°54'0 0.0
2014-Nov-14 16:14N 21°59' E 113°54'0 0.0
2014-Nov-14 15:32N 21°59' E 113°54'0 0.0
2014-Nov-14 14:20N 21°59' E 113°54'0 0.0
2014-Nov-14 12:26N 21°59' E 113°54'0 0.0
2014-Nov-14 11:32N 21°59' E 113°54'0 0.0
2014-Nov-14 07:20N 21°59' E 113°54'0 0.0
2014-Nov-14 06:08N 21°59' E 113°54'0 0.0
2014-Nov-14 05:14N 21°59' E 113°54'0 0.0
2014-Nov-14 04:32N 21°59' E 113°54'0 0.0
2014-Nov-14 02:14N 21°59' E 113°54'0 0.0
2014-Nov-14 01:31N 21°59' E 113°54'0 0.0
2014-Nov-14 00:33N 21°59' E 113°54'0 0.1
2014-Nov-13 23:33N 21°59' E 113°54'8 7.7
2014-Nov-13 22:33N 21°52' E 113°51'10 8.9
2014-Nov-13 21:28N 21°46' E 114°00'25914.2
2014-Nov-13 03:14N 23°42' E 118°11'5213.8
2014-Nov-12 23:29N 24°16' E 118°53'  

Dump ship's entire track history